RADUGA 11 [-]

Last updated on Nov. 12, 2019, 4:19 a.m. UTC

1 13669U 82113A   19314.85428479 -.00000183  00000-0  00000+0 0  9997
2 13669  13.7424 331.2449 0037613 232.9979 311.4734  0.97710095 97978
UTC
Height (km)
Latitude
Longitude
Inclination
Orbital Period
UTC large
Height (km)
Speed (km/s)
/
Latitude / Longitude
Inclination (degrees)
Orbital Period (minutes)
Azimuth
Elevation
Range (km)
Doppler Factor
iOS Compass Heading
iOS Angle

Next 30 passes for location: Hong Kong

Rise time Rise Azimuth (degrees) Set time Set Azimuth (degrees) Duration Max altitude (degrees)

No matching passes for this satellites